User: anonymous   Login
Location: Chuathbaluk
(61.5726°N, 159.2454°W)
Time: 13:27:46
(UTC+00:00)
Language:

SEEDS - Orbit

View from above orbital plane
View from above orbital plane
View from above satellite
View from above satellite

Ground track
Ground track

The orbit data is extracted from the following two-line orbital elements,

1 32791U 08021J   21015.92062169  .00000452  00000-0  50726-4 0  9992
2 32791  97.5572   6.8920 0014596 112.0432 248.2339 14.91247220690123
Epoch (UTC): 15 January 2021 22:05:41
Eccentricity: 0.0014596
inclination: 97.5572°
perigee height: 584 km
apogee height: 604 km
right ascension of ascending node: 6.8920°
argument of perigee: 112.0432°
revolutions per day: 14.91247220
mean anomaly at epoch: 248.2339°
orbit number at epoch: 69012

The dashed part of the orbit path shows where the satellite is in the earth's shadow,  

DLR